User: anonymous   Login
Location: Unspecified
(35.6961°N, 0.0000°E)
Time: 10:17:58
(UTC+00:00)
Language:

deb Explorer IX - Orbit

View from above orbital plane
View from above orbital plane
View from above satellite
View from above satellite

Ground track
Ground track

The orbit data is extracted from the following two-line orbital elements,

1    85U 61004C   19134.36674463  .00000904  00000-0  20819-3 0  9997
2    85  38.7746 260.1416 0401209 355.9283   3.8243 14.19706122874182
Epoch (UTC): 14 May 2019 08:48:06
Eccentricity: 0.0401209
inclination: 38.7746°
perigee height: 537 km
apogee height: 1115 km
right ascension of ascending node: 260.1416°
argument of perigee: 355.9283°
revolutions per day: 14.19706122
mean anomaly at epoch: 3.8243°
orbit number at epoch: 87418

The dashed part of the orbit path shows where the satellite is in the earth's shadow,  

DLR